• In India
  • List of Countries
  • For 7 days
  • Water Temperature
  • Satellite Maps
  • Weather Map
  • Weather Widgets
  • user-avatar
    Login

    Hourly Weather Sevan

    Today, 25 November, Saturday

    Time Temperature Precipitation Wind Pressure Humidity
    00:00 -8°C° 0 mm 2 mps 639 mmHg 54%
    01:00 -8°C° 0 mm 2 mps 639 mmHg 57%
    02:00 -7°C° 0 mm 2 mps 639 mmHg 59%
    03:00 -7°C° 0 mm 2 mps 640 mmHg 61%
    04:00 -7°C° 0.1 mm 2 mps 640 mmHg 64%
    05:00 -7°C° 0.1 mm 2 mps 640 mmHg 66%
    06:00 -7°C° 0.1 mm 2 mps 641 mmHg 69%
    07:00 -6°C° 0.1 mm 2 mps 642 mmHg 68%
    08:00 -5°C° 0.1 mm 2 mps 642 mmHg 68%
    09:00 -5°C° 0.1 mm 2 mps 643 mmHg 67%
    10:00 -4°C° 0 mm 2 mps 643 mmHg 63%
    11:00 -3°C° 0 mm 2 mps 643 mmHg 59%
    12:00 -2°C° 0 mm 2 mps 644 mmHg 55%
    13:00 -2°C° 0 mm 2 mps 644 mmHg 54%
    14:00 -2°C° 0 mm 2 mps 644 mmHg 53%
    15:00 -2°C° 0 mm 2 mps 644 mmHg 53%
    16:00 -3°C° 0 mm 2 mps 644 mmHg 56%
    17:00 -4°C° 0 mm 2 mps 644 mmHg 59%
    18:00 -6°C° 0 mm 2 mps 644 mmHg 62%
    19:00 -6°C° 0 mm 2 mps 644 mmHg 62%
    20:00 -6°C° 0 mm 2 mps 644 mmHg 62%
    21:00 -6°C° 0 mm 2 mps 645 mmHg 62%
    22:00 -6°C° 0 mm 2 mps 645 mmHg 61%
    23:00 -6°C° 0 mm 2 mps 645 mmHg 61%

    Tomorrow, 26 November, Sunday

    Time Temperature Precipitation Wind Pressure Humidity
    00:00 -7°C° 0 mm 2 mps 645 mmHg 61%
    01:00 -7°C° 0 mm 2 mps 645 mmHg 61%
    02:00 -6°C° 0 mm 1 mps 645 mmHg 61%
    03:00 -6°C° 0 mm 1 mps 645 mmHg 62%
    04:00 -6°C° 0 mm 1 mps 644 mmHg 62%
    05:00 -6°C° 0 mm 1 mps 644 mmHg 63%
    06:00 -6°C° 0 mm 1 mps 644 mmHg 63%
    07:00 -6°C° 0 mm 2 mps 644 mmHg 60%
    08:00 -4°C° 0 mm 2 mps 645 mmHg 58%
    09:00 -3°C° 0 mm 2 mps 645 mmHg 55%
    10:00 -2°C° 0 mm 2 mps 644 mmHg 52%
    11:00 -1°C° 0 mm 2 mps 644 mmHg 48%
    12:00 +1°C° 0 mm 2 mps 643 mmHg 45%
    13:00 +1°C° 0 mm 2 mps 643 mmHg 45%
    14:00 +2°C° 0 mm 2 mps 643 mmHg 44%
    15:00 +2°C° 0 mm 2 mps 642 mmHg 44%
    16:00 -1°C° 0 mm 2 mps 642 mmHg 45%
    17:00 -2°C° 0 mm 2 mps 642 mmHg 46%
    18:00 -4°C° 0 mm 2 mps 642 mmHg 48%
    19:00 -4°C° 0 mm 2 mps 642 mmHg 48%
    20:00 -4°C° 0 mm 2 mps 642 mmHg 47%
    21:00 -4°C° 0 mm 2 mps 642 mmHg 47%
    22:00 -4°C° 0 mm 2 mps 642 mmHg 48%
    23:00 -4°C° 0 mm 2 mps 642 mmHg 49%

    Day after tomorrow, 27 November, Monday

    Time Temperature Precipitation Wind Pressure Humidity
    00:00 -4°C° 0 mm 2 mps 642 mmHg 50%
    01:00 -2°C° 0 mm 1 mps 642 mmHg 51%
    02:00 -3°C° 0 mm 1 mps 641 mmHg 52%
    03:00 -3°C° 0 mm 1 mps 641 mmHg 53%
    04:00 -3°C° 0 mm 1 mps 641 mmHg 54%
    05:00 -3°C° 0 mm 1 mps 641 mmHg 55%
    06:00 -3°C° 0 mm 1 mps 641 mmHg 55%
    07:00 -4°C° 0 mm 2 mps 641 mmHg 54%
    08:00 -2°C° 0 mm 2 mps 642 mmHg 52%
    09:00 -1°C° 0 mm 2 mps 642 mmHg 50%
    10:00 +1°C° 0 mm 2 mps 642 mmHg 49%
    11:00 +2°C° 0 mm 2 mps 642 mmHg 48%
    12:00 +3°C° 0 mm 2 mps 641 mmHg 46%
    13:00 +3°C° 0 mm 2 mps 641 mmHg 47%
    14:00 +3°C° 0 mm 2 mps 641 mmHg 47%
    15:00 +3°C° 0 mm 2 mps 640 mmHg 47%
    16:00 +2°C° 0 mm 2 mps 640 mmHg 50%
    17:00 -1°C° 0 mm 2 mps 640 mmHg 52%
    18:00 -2°C° 0 mm 2 mps 640 mmHg 55%
    19:00 0°C° 0 mm 1 mps 641 mmHg 55%
    20:00 0°C° 0 mm 1 mps 641 mmHg 56%
    21:00 -1°C° 0 mm 1 mps 641 mmHg 56%
    22:00 -1°C° 0 mm 1 mps 641 mmHg 57%
    23:00 -1°C° 0 mm 1 mps 641 mmHg 58%

    28 November, Tuesday

    Time Temperature Precipitation Wind Pressure Humidity
    00:00 -1°C° 0 mm 1 mps 641 mmHg 59%
    01:00 -1°C° 0 mm 1 mps 641 mmHg 60%
    02:00 -1°C° 0 mm 1 mps 641 mmHg 60%
    03:00 -1°C° 0 mm 1 mps 641 mmHg 60%
    04:00 -2°C° 0 mm 1 mps 641 mmHg 61%
    05:00 -2°C° 0 mm 1 mps 641 mmHg 61%
    06:00 -2°C° 0 mm 1 mps 641 mmHg 61%
    07:00 -1°C° 0 mm 1 mps 642 mmHg 59%
    08:00 0°C° 0 mm 1 mps 642 mmHg 56%
    09:00 +2°C° 0 mm 1 mps 643 mmHg 54%
    10:00 +2°C° 0 mm 2 mps 643 mmHg 52%
    11:00 +3°C° 0 mm 2 mps 642 mmHg 50%
    12:00 +4°C° 0 mm 2 mps 642 mmHg 48%
    13:00 +4°C° 0 mm 2 mps 642 mmHg 48%
    14:00 +4°C° 0 mm 2 mps 642 mmHg 48%
    15:00 +4°C° 0 mm 2 mps 641 mmHg 49%
    16:00 +3°C° 0 mm 2 mps 641 mmHg 51%
    17:00 +1°C° 0 mm 2 mps 641 mmHg 54%
    18:00 +1°C° 0 mm 1 mps 641 mmHg 57%
    19:00 +1°C° 0 mm 1 mps 642 mmHg 56%
    20:00 +1°C° 0 mm 1 mps 642 mmHg 56%
    21:00 +1°C° 0 mm 1 mps 642 mmHg 56%
    22:00 +1°C° 0 mm 1 mps 642 mmHg 57%
    23:00 +1°C° 0 mm 1 mps 642 mmHg 59%

    29 November, Wednesday

    Time Temperature Precipitation Wind Pressure Humidity
    00:00 0°C° 0 mm 1 mps 642 mmHg 60%
    01:00 0°C° 0 mm 1 mps 642 mmHg 62%
    02:00 0°C° 0 mm 1 mps 642 mmHg 63%
    03:00 0°C° 0 mm 1 mps 642 mmHg 64%
    04:00 0°C° 0 mm 1 mps 642 mmHg 65%
    05:00 -2°C° 0 mm 2 mps 642 mmHg 66%
    06:00 -2°C° 0 mm 2 mps 642 mmHg 67%
    07:00 -1°C° 0 mm 2 mps 643 mmHg 65%
    08:00 +1°C° 0 mm 2 mps 643 mmHg 62%
    09:00 +3°C° 0 mm 2 mps 644 mmHg 60%
    10:00 +4°C° 0 mm 2 mps 643 mmHg 58%
    11:00 +5°C° 0 mm 2 mps 643 mmHg 56%
    12:00 +5°C° 0 mm 3 mps 643 mmHg 55%
    13:00 +5°C° 0.1 mm 3 mps 643 mmHg 55%
    14:00 +5°C° 0.1 mm 3 mps 642 mmHg 56%
    15:00 +6°C° 0.1 mm 2 mps 642 mmHg 57%
    16:00 +5°C° 0.1 mm 2 mps 642 mmHg 60%
    17:00 +4°C° 0.1 mm 2 mps 642 mmHg 63%
    18:00 +3°C° 0.1 mm 2 mps 642 mmHg 66%
    19:00 +3°C° 0.1 mm 2 mps 642 mmHg 67%
    20:00 +3°C° 0.1 mm 2 mps 642 mmHg 68%
    21:00 +3°C° 0.1 mm 2 mps 642 mmHg 69%
    22:00 +3°C° 0.1 mm 2 mps 642 mmHg 70%
    23:00 +3°C° 0.1 mm 2 mps 642 mmHg 71%

    30 November, Thursday

    Time Temperature Precipitation Wind Pressure Humidity
    00:00 +2°C° 0.1 mm 2 mps 641 mmHg 72%
    01:00 +2°C° 0.1 mm 2 mps 641 mmHg 72%
    02:00 +2°C° 0.1 mm 2 mps 641 mmHg 72%
    03:00 +2°C° 0.1 mm 2 mps 641 mmHg 72%
    04:00 +2°C° 0.1 mm 2 mps 641 mmHg 73%
    05:00 +2°C° 0.1 mm 2 mps 641 mmHg 74%
    06:00 +2°C° 0.1 mm 2 mps 641 mmHg 75%
    07:00 +3°C° 0.1 mm 2 mps 641 mmHg 74%
    08:00 +3°C° 0.1 mm 2 mps 641 mmHg 73%
    09:00 +4°C° 0.1 mm 2 mps 642 mmHg 71%
    10:00 +4°C° 0.2 mm 2 mps 641 mmHg 71%
    11:00 +4°C° 0.2 mm 2 mps 641 mmHg 71%
    12:00 +5°C° 0.2 mm 2 mps 641 mmHg 70%
    13:00 +5°C° 0.2 mm 2 mps 641 mmHg 71%
    14:00 +5°C° 0.2 mm 2 mps 641 mmHg 71%
    15:00 +6°C° 0.2 mm 1 mps 641 mmHg 72%
    16:00 +5°C° 0.2 mm 1 mps 641 mmHg 74%
    17:00 +4°C° 0.2 mm 1 mps 641 mmHg 77%
    18:00 +4°C° 0.2 mm 1 mps 641 mmHg 79%
    19:00 +3°C° 0.4 mm 0 mps 642 mmHg 80%
    20:00 +2°C° 0.4 mm 0 mps 642 mmHg 81%
    21:00 +2°C° 0.4 mm 0 mps 642 mmHg 83%
    22:00 +2°C° 0.4 mm 0 mps 642 mmHg 84%
    23:00 +2°C° 0.4 mm 0 mps 642 mmHg 85%
    Show more